Location: Cluny
(50.9333°N, 112.8167°W)
Time: 01:47:49
(UTC-06:00)

Amateur Radio Satellites - All Passes

Search period start: 01 August 2015 01:17
Search period end: 02 August 2015 01:17
Location: Cluny, 50.9333°N, 112.8167°W

Satellite Date Start Highest point End Downlink Frequencies (MHz)
Time Altitude Azimuth
TIGRISAT 01 Aug 01:25:59 01:30:02 29° 296° (WNW) 01:34:04 435.000
TISAT 1 01 Aug 01:26:20 01:30:27 57° 259° (W) 01:34:36 437.305
M-CUBED/EXP-1 PRIME 01 Aug 01:26:44 01:29:43 16° 311° (NW) 01:32:35 437.505
ANTELSAT 01 Aug 01:27:42 01:31:42 28° 296° (WNW) 01:35:41 437.575/2403.000
DUCHIFAT 1 01 Aug 01:30:48 01:34:55 50° 290° (WNW) 01:39:02 145.980
YUBILEINY 01 Aug 01:30:53 01:39:34 78° 97° (E) 01:48:22 435.215
QB50P1 01 Aug 01:33:55 01:38:00 46° 291° (WNW) 01:42:04 145.935-145.965
NANOSAT C BR1 01 Aug 01:35:15 01:39:19 45° 291° (WNW) 01:43:22 145.865
BEESAT 3 01 Aug 01:40:01 01:44:06 65° 314° (NW) 01:48:12 437.485
Cosmos 2504 01 Aug 01:45:11 01:47:49 13° 70° (ENE) 01:50:56 435.465 / 435.565
ISS 01 Aug 01:46:56 01:50:13 78° 7° (N) 01:53:29 145.825
BEESAT 01 Aug 01:55:27 02:00:08 57° 70° (ENE) 02:04:52 436.000
AUBIESAT-1 01 Aug 01:57:33 01:59:03 11° 316° (NW) 02:00:23 437.475
O/OREOS (USA 219) 01 Aug 01:59:54 02:03:31 25° 105° (ESE) 02:07:15 437.305
Oscar 19 01 Aug 02:09:34 02:13:41 24° 91° (E) 02:17:55 437.125/150
RS-15 01 Aug 02:10:48 02:21:24 44° 345° (NNW) 02:32:26 29.354- 29.394
SWISSCUBE 01 Aug 02:15:51 02:20:40 90° 252° (WSW) 02:25:32 437.505
POLYITAN 1 01 Aug 02:17:37 02:20:47 20° 299° (WNW) 02:23:53 437.675
UNISAT 6 01 Aug 02:20:55 02:22:42 12° 306° (NW) 02:24:19 437.425
STARS 01 Aug 02:26:22 02:29:01 16° 58° (ENE) 02:31:47 437.465
AIST 2 01 Aug 02:30:54 02:35:11 85° 131° (SE) 02:39:28 435.215
POPSAT HIP 1 01 Aug 02:35:19 02:37:48 15° 302° (WNW) 02:40:10 437.405
ITUPSAT 1 01 Aug 02:36:48 02:41:37 66° 258° (WSW) 02:46:25 437.325
BEESAT 2 01 Aug 02:38:17 02:42:01 32° 324° (NW) 02:45:46 435.950
BUGSAT 1 01 Aug 02:40:13 02:43:00 18° 299° (WNW) 02:45:42 437.445
QB50P2 01 Aug 02:43:22 02:45:20 13° 304° (NW) 02:47:10 145.880/145.840
KKS-1 01 Aug 02:51:01 02:55:06 38° 67° (ENE) 02:59:13 437.445
Cosmos 2491 01 Aug 03:03:30 03:07:53 14° 290° (WNW) 03:11:47 435.465 / 435.565
Gurwin Techsat 1B 01 Aug 03:07:02 03:11:22 25° 91° (E) 03:15:46 435.225
BEESAT 3 01 Aug 03:19:51 03:22:47 18° 336° (NNW) 03:25:41 437.485
ISS 01 Aug 03:23:25 03:26:35 48° 204° (SSW) 03:29:45 145.825
YUBILEINY 01 Aug 03:29:52 03:37:28 31° 302° (WNW) 03:44:59 435.215
ITAMSAT 1 01 Aug 03:29:56 03:34:36 33° 95° (E) 03:39:17 435.822/435.867
Cosmos 2504 01 Aug 03:31:18 03:38:19 60° 92° (E) 03:45:56 435.465 / 435.565
BEESAT 01 Aug 03:34:37 03:38:22 22° 269° (W) 03:42:03 436.000
O/OREOS (USA 219) 01 Aug 03:38:22 03:42:43 48° 305° (NW) 03:47:08 437.305
MOZHAYETS 4 01 Aug 03:41:29 03:44:45 20° 60° (ENE) 03:48:10
Oscar 19 01 Aug 03:48:22 03:53:27 58° 291° (WNW) 03:58:33 437.125/150
SWISSCUBE 01 Aug 03:56:47 03:59:19 14° 275° (W) 04:01:39 437.505
JAS-2 01 Aug 03:58:41 04:05:46 37° 91° (E) 04:12:57 435.910
STARS 01 Aug 04:00:34 04:04:57 78° 256° (WSW) 04:09:21 437.465
AO-7 01 Aug 04:04:14 04:09:42 19° 84° (E) 04:15:30 29.400- 29.500
AIST 2 01 Aug 04:10:46 04:14:16 24° 331° (NNW) 04:17:44 435.215
BEESAT 2 01 Aug 04:19:07 04:21:16 14° 347° (NNW) 04:23:22 435.950
RS-15 01 Aug 04:26:05 04:36:56 46° 18° (NNE) 04:48:19 29.354- 29.394
KKS-1 01 Aug 04:27:57 04:31:50 29° 266° (W) 04:35:41 437.445
DANDE 01 Aug 04:41:31 04:42:34 12° 94° (E) 04:43:40 436.750
Gurwin Techsat 1B 01 Aug 04:46:31 04:51:45 57° 291° (WNW) 04:56:56 435.225
CUSAT 1 01 Aug 05:00:41 05:03:10 32° 98° (E) 05:05:34 437.405
BEESAT 3 01 Aug 05:00:42 05:02:13 12° 360° (N) 05:03:44 437.485
ISS 01 Aug 05:01:05 05:02:28 12° 222° (SW) 05:03:46 145.825
ITAMSAT 1 01 Aug 05:09:21 05:14:14 42° 295° (WNW) 05:19:05 435.822/435.867
MOZHAYETS 4 01 Aug 05:16:56 05:21:34 68° 259° (WSW) 05:26:13
HORYU 2 01 Aug 05:19:27 05:23:52 50° 100° (E) 05:28:16 437.375
O/OREOS (USA 219) 01 Aug 05:21:40 05:23:21 12° 328° (NNW) 05:24:56 437.305
Cosmos 2504 01 Aug 05:24:28 05:31:05 35° 297° (WNW) 05:38:05 435.465 / 435.565
Oscar 19 01 Aug 05:29:46 05:31:53 12° 310° (NW) 05:33:48 437.125/150
CUBESAT XI-V 01 Aug 05:34:48 05:38:31 24° 62° (ENE) 05:42:16 437.345
STARS 01 Aug 05:41:37 05:42:15 10° 276° (W) 05:42:39 437.465
JAS-2 01 Aug 05:43:33 05:51:12 64° 292° (WNW) 05:58:53 435.910
AIST 2 01 Aug 05:52:16 05:54:15 13° 355° (N) 05:56:13 435.215
AO-7 01 Aug 05:55:42 06:04:06 77° 107° (ESE) 06:12:26 29.400- 29.500
BEESAT 2 01 Aug 05:58:56 06:00:55 13° 11° (N) 06:02:57 435.950
STRAND 1 01 Aug 06:03:33 06:07:09 20° 57° (ENE) 06:10:53 437.568
GONETS M04 01 Aug 06:13:23 06:21:09 39° 85° (E) 06:29:02
DANDE 01 Aug 06:22:55 06:25:31 27° 288° (WNW) 06:27:51 436.750
Gurwin Techsat 1B 01 Aug 06:28:32 06:30:45 12° 311° (NW) 06:32:46 435.225
CUTE-I 01 Aug 06:37:12 06:40:17 16° 85° (E) 06:43:32 437.470
BEESAT 3 01 Aug 06:38:48 06:41:40 18° 23° (NNE) 06:44:32 437.485
RS-15 01 Aug 06:39:23 06:51:06 84° 48° (NE) 07:03:19 29.354- 29.394
PRISM 01 Aug 06:41:15 06:44:43 26° 63° (ENE) 06:48:14 437.425
HORYU 2 01 Aug 06:56:35 07:00:15 24° 298° (WNW) 07:03:49 437.375
CUBESAT XI-V 01 Aug 07:11:05 07:15:40 53° 261° (W) 07:20:16 437.345
Cubesat XI-IV 01 Aug 07:20:07 07:24:58 34° 95° (E) 07:29:49 437.490
JAS-2 01 Aug 07:29:43 07:35:00 20° 312° (NW) 07:40:09 435.910
AIST 2 01 Aug 07:31:42 07:34:25 16° 18° (NNE) 07:37:09 435.215
BEESAT 2 01 Aug 07:36:34 07:40:12 29° 34° (NE) 07:43:50 435.950
STRAND 1 01 Aug 07:40:41 07:45:51 80° 256° (WSW) 07:51:02 437.568
AO-7 01 Aug 07:49:02 07:56:22 35° 309° (NW) 08:03:33 29.400- 29.500
Cosmos 2499 01 Aug 07:53:36 08:00:19 38° 85° (E) 08:07:38 435.465 / 435.565
AUBIESAT-1 01 Aug 08:06:17 08:08:18 13° 47° (NE) 08:10:31 437.475
GONETS M04 01 Aug 08:09:10 08:17:45 59° 288° (WNW) 08:26:20
CUTE-I 01 Aug 08:15:49 08:21:12 90° 288° (WNW) 08:26:32 437.470
PRISM 01 Aug 08:16:02 08:20:00 40° 262° (W) 08:23:58 437.425
BEESAT 3 01 Aug 08:16:18 08:20:21 63° 45° (NE) 08:24:22 437.485
BRITE-PL 01 Aug 08:16:29 08:19:16 17° 89° (E) 08:22:17 437.365/2234.400
GOMX 1 01 Aug 08:27:25 08:29:42 14° 87° (E) 08:32:14 467.674
RS-15 01 Aug 08:52:21 09:02:42 37° 251° (WSW) 09:13:06 29.354- 29.394
CANX-2 01 Aug 08:54:01 08:56:01 13° 85° (E) 08:58:12 2200.000
Cubesat XI-IV 01 Aug 09:00:09 09:05:12 43° 295° (WNW) 09:10:11 437.490
M-CUBED/EXP-1 PRIME 01 Aug 09:09:00 09:12:58 43° 61° (ENE) 09:17:16 437.505
AIST 2 01 Aug 09:09:52 09:13:58 47° 41° (NE) 09:18:01 435.215
BEESAT 2 01 Aug 09:14:28 09:18:29 53° 235° (SW) 09:22:25 435.950
TIGRISAT 01 Aug 09:19:46 09:20:58 11° 53° (NE) 09:22:21 435.000
ANTELSAT 01 Aug 09:21:12 09:22:46 12° 54° (NE) 09:24:31 437.575/2403.000
STRAND 1 01 Aug 09:23:32 09:26:00 13° 276° (W) 09:28:13 437.568
HO-68 01 Aug 09:24:20 09:30:38 33° 93° (E) 09:37:01 435.675
AUBIESAT-1 01 Aug 09:38:02 09:42:11 68° 66° (ENE) 09:46:42 437.475
YUBILEINY 01 Aug 09:39:03 09:43:40 15° 41° (NE) 09:48:41 435.215
AO-7 01 Aug 09:43:05 09:46:47 14° 335° (NNW) 09:50:16 29.400- 29.500
Cosmos 2499 01 Aug 09:45:49 09:53:13 56° 289° (WNW) 10:01:15 435.465 / 435.565
DOVE 4 01 Aug 09:51:47 09:56:12 52° 99° (E) 10:00:55 437.250
BRITE-PL 01 Aug 09:54:00 09:58:15 64° 287° (WNW) 10:02:46 437.365/2234.400
BEESAT 3 01 Aug 09:54:57 09:57:56 19° 244° (WSW) 10:00:48 437.485
CUTE-I 01 Aug 09:57:01 10:00:39 19° 305° (NW) 10:04:09 437.470
CINEMA 3 01 Aug 10:00:21 10:04:30 32° 95° (E) 10:08:51 145.822/145.860
COMPASS 1 01 Aug 10:01:38 10:05:30 34° 95° (E) 10:09:23 437.405
GOMX 1 01 Aug 10:04:00 10:08:26 82° 285° (WNW) 10:13:10 467.674
POLYITAN 1 01 Aug 10:05:53 10:07:35 12° 56° (NE) 10:09:27 437.675
UNISAT 6 01 Aug 10:10:00 10:13:46 29° 64° (ENE) 10:17:40 437.425
GONETS M04 01 Aug 10:11:34 10:17:03 17° 316° (NW) 10:22:12
FUNcube-1 01 Aug 10:13:08 10:15:24 14° 86° (E) 10:17:52 145.935
UWE-3 01 Aug 10:15:01 10:18:13 19° 89° (E) 10:21:34 435.000/436.395/437.385
SEEDS 01 Aug 10:16:43 10:20:59 59° 101° (E) 10:25:11 437.485
PCSat 01 Aug 10:18:28 10:23:44 57° 120° (ESE) 10:29:05 145.827
CUTE 1.7 + AOD 2 01 Aug 10:19:48 10:24:09 77° 103° (ESE) 10:28:27 437.475
SO-50 01 Aug 10:19:49 10:24:18 41° 121° (ESE) 10:28:56 436.795
POPSAT HIP 1 01 Aug 10:21:49 10:24:26 17° 59° (ENE) 10:27:10 437.405
Oscar 11 01 Aug 10:24:51 10:28:28 25° 92° (E) 10:32:08 145.826/435.025
O/OREOS (USA 219) 01 Aug 10:25:02 10:28:33 22° 44° (NE) 10:32:08 437.305
BUGSAT 1 01 Aug 10:26:21 10:27:45 12° 56° (ENE) 10:29:18 437.445
CANX-2 01 Aug 10:28:15 10:32:36 81° 286° (WNW) 10:36:53 2200.000
DELFI C3 01 Aug 10:28:26 10:31:17 18° 90° (E) 10:34:12 145.870
QB50P2 01 Aug 10:29:05 10:32:04 20° 61° (ENE) 10:35:10 145.880/145.840
CUBEBUG 2 01 Aug 10:30:18 10:34:24 31° 94° (E) 10:38:37 437.445
HUMSAT D 01 Aug 10:38:37 10:38:58 10° 83° (E) 10:39:33 437.325/437.525
AAUSAT CUBESAT 2 01 Aug 10:42:45 10:47:00 75° 103° (ESE) 10:51:11 437.432
M-CUBED/EXP-1 PRIME 01 Aug 10:44:22 10:47:56 27° 262° (W) 10:51:42 437.505
AIST 2 01 Aug 10:48:42 10:52:23 29° 241° (WSW) 10:55:58 435.215
TIGRISAT 01 Aug 10:52:33 10:56:53 65° 72° (ENE) 11:01:21 435.000
DUCHIFAT 1 01 Aug 10:52:41 10:56:17 29° 65° (ENE) 10:59:56 145.980
ANTELSAT 01 Aug 10:54:24 10:58:45 70° 73° (ENE) 11:03:16 437.575/2403.000
QB50P1 01 Aug 10:55:58 10:59:41 32° 66° (ENE) 11:03:28 145.935-145.965
DX 1 01 Aug 10:57:01 10:57:31 10° 84° (E) 10:58:16 434.975-435.025
NANOSAT C BR1 01 Aug 10:57:06 11:00:49 32° 66° (ENE) 11:04:36 145.865
HO-68 01 Aug 11:11:47 11:18:53 64° 294° (WNW) 11:25:57 435.675
AUBIESAT-1 01 Aug 11:14:40 11:17:28 17° 267° (W) 11:20:16 437.475
ZACube-1 01 Aug 11:26:13 11:30:43 64° 101° (E) 11:35:17 437.345
DOVE 4 01 Aug 11:30:07 11:33:46 24° 296° (WNW) 11:37:29 437.250
YUBILEINY 01 Aug 11:34:43 11:43:17 52° 69° (ENE) 11:51:52 435.215
BRITE-PL 01 Aug 11:35:51 11:36:08 10° 305° (NW) 11:36:13 437.365/2234.400
COMPASS 1 01 Aug 11:37:23 11:41:08 30° 294° (WNW) 11:44:47 437.405
CINEMA 3 01 Aug 11:37:29 11:41:46 38° 292° (WNW) 11:46:10 145.822/145.860
POLYITAN 1 01 Aug 11:38:38 11:42:50 82° 75° (ENE) 11:47:06 437.675
GOMX 1 01 Aug 11:43:52 11:46:02 13° 303° (WNW) 11:48:06 467.674
Cosmos 2499 01 Aug 11:44:14 11:48:49 16° 317° (NW) 11:53:15 435.465 / 435.565
UNISAT 6 01 Aug 11:46:18 11:50:26 39° 263° (W) 11:54:40 437.425
AIST 1 01 Aug 11:46:44 11:48:51 14° 84° (E) 11:51:08
FUNcube-1 01 Aug 11:47:50 11:52:22 84° 285° (WNW) 11:56:57 145.935
UWE-3 01 Aug 11:50:38 11:55:10 63° 288° (WNW) 11:59:46 435.000/436.395/437.385
SEEDS 01 Aug 11:53:18 11:56:24 19° 299° (WNW) 11:59:23 437.485
50 SAT 01 Aug 11:54:50 11:58:14 27° 94° (E) 12:01:39 437.505
POPSAT HIP 1 01 Aug 11:55:40 11:59:51 70° 257° (WSW) 12:04:04 437.405
Oscar 19 01 Aug 11:56:08 11:57:46 12° 49° (NE) 11:59:35 437.125/150
CUTE 1.7 + AOD 2 01 Aug 11:56:53 11:59:33 16° 301° (WNW) 12:02:06 437.475
BUGSAT 1 01 Aug 11:58:34 12:02:36 83° 75° (ENE) 12:06:40 437.445
SO-50 01 Aug 12:00:11 12:04:52 44° 322° (NW) 12:09:38 436.795
Oscar 11 01 Aug 12:00:41 12:04:50 42° 291° (WNW) 12:08:56 145.826/435.025
UKube-1 01 Aug 12:01:52 12:05:55 39° 97° (E) 12:10:00 .
PCSat 01 Aug 12:02:27 12:07:27 36° 322° (NW) 12:12:28 145.827
DELFI C3 01 Aug 12:02:42 12:06:41 51° 289° (WNW) 12:10:36 145.870
QB50P2 01 Aug 12:03:28 12:07:37 57° 259° (W) 12:11:48 145.880/145.840
O/OREOS (USA 219) 01 Aug 12:03:55 12:08:29 71° 245° (WSW) 12:13:03 437.305
CANX-2 01 Aug 12:05:54 12:07:51 13° 304° (NW) 12:09:40 2200.000
AISAT 01 Aug 12:06:51 12:10:47 31° 95° (E) 12:14:46 437.250
CUBEBUG 2 01 Aug 12:06:53 12:11:09 38° 292° (WNW) 12:15:29 437.445
HUMSAT D 01 Aug 12:11:10 12:15:31 79° 102° (ESE) 12:19:52 437.325/437.525
Cosmos 2491 01 Aug 12:15:40 12:23:16 36° 84° (E) 12:31:00 435.465 / 435.565
AAUSAT CUBESAT 2 01 Aug 12:19:29 12:22:06 16° 301° (WNW) 12:24:34 437.432
CUBEBUG 1 01 Aug 12:20:24 12:24:00 26° 93° (E) 12:27:40 437.445
DUCHIFAT 1 01 Aug 12:28:09 12:32:01 35° 264° (W) 12:35:52 145.980
DX 1 01 Aug 12:30:14 12:34:37 80° 106° (ESE) 12:38:57 434.975-435.025
TIGRISAT 01 Aug 12:31:15 12:34:10 17° 273° (W) 12:37:00 435.000
QB50P1 01 Aug 12:31:46 12:35:33 31° 265° (W) 12:39:19 145.935-145.965
NANOSAT C BR1 01 Aug 12:32:54 12:36:40 31° 265° (W) 12:40:25 145.865
ANTELSAT 01 Aug 12:33:22 12:36:08 16° 273° (W) 12:38:48 437.575/2403.000
VELOX 1 01 Aug 12:45:34 12:49:59 70° 103° (ESE) 12:54:23 145.980
SPROUT 01 Aug 12:55:34 12:58:43 20° 90° (E) 13:01:57 437.525
Gurwin Techsat 1B 01 Aug 12:56:39 12:59:03 13° 51° (NE) 13:01:39 435.225
ESTCUBE 1 01 Aug 12:58:18 13:02:49 69° 103° (ESE) 13:07:18 437.505/2401.250
HO-68 01 Aug 13:00:40 13:05:27 19° 316° (NW) 13:10:02 435.675
ZACube-1 01 Aug 13:03:22 13:06:42 20° 299° (WNW) 13:09:58 437.345
TISAT 1 01 Aug 13:06:35 13:09:10 16° 88° (E) 13:11:53 437.305
Cosmos 2504 01 Aug 13:10:36 13:17:42 31° 60° (ENE) 13:25:10 435.465 / 435.565
ITAMSAT 1 01 Aug 13:16:02 13:19:10 17° 54° (NE) 13:22:28 435.822/435.867
POLYITAN 1 01 Aug 13:17:28 13:19:24 13° 274° (W) 13:21:09 437.675
AO-7 01 Aug 13:20:27 13:25:03 17° 32° (NNE) 13:29:53 29.400- 29.500
AIST 1 01 Aug 13:21:37 13:25:59 74° 283° (WNW) 13:30:19
FUNcube-1 01 Aug 13:25:38 13:28:04 14° 303° (WNW) 13:30:22 145.935
50 SAT 01 Aug 13:29:13 13:32:51 34° 293° (WNW) 13:36:27 437.505
UWE-3 01 Aug 13:29:28 13:30:55 11° 306° (NW) 13:32:11 435.000/436.395/437.385
Oscar 19 01 Aug 13:31:10 13:36:09 56° 69° (ENE) 13:41:12 437.125/150
YUBILEINY 01 Aug 13:31:50 13:40:08 46° 272° (W) 13:48:18 435.215
BUGSAT 1 01 Aug 13:37:13 13:38:43 11° 274° (W) 13:40:02 437.445
UKube-1 01 Aug 13:38:14 13:41:57 28° 296° (WNW) 13:45:36 .
SO-50 01 Aug 13:43:00 13:46:35 19° 346° (NNW) 13:50:10 436.795
AISAT 01 Aug 13:43:23 13:47:24 35° 294° (WNW) 13:51:23 437.250
HUMSAT D 01 Aug 13:48:04 13:50:45 16° 301° (WNW) 13:53:18 437.325/437.525
PCSat 01 Aug 13:49:04 13:52:29 16° 346° (NNW) 13:55:51 145.827
CUBEBUG 1 01 Aug 13:56:27 14:00:31 40° 292° (WNW) 14:04:34 437.445
DX 1 01 Aug 14:07:39 14:10:20 16° 303° (WNW) 14:12:54 434.975-435.025
Cosmos 2491 01 Aug 14:11:01 14:19:44 64° 286° (WNW) 14:28:26 435.465 / 435.565
SWISSCUBE 01 Aug 14:12:12 14:15:10 16° 87° (E) 14:18:15 437.505
JAS-2 01 Aug 14:17:00 14:22:19 28° 54° (NE) 14:28:15 435.910
VELOX 1 01 Aug 14:23:05 14:26:06 18° 301° (WNW) 14:29:00 145.980
SPROUT 01 Aug 14:30:55 14:35:07 52° 290° (WNW) 14:39:19 437.525
ITUPSAT 1 01 Aug 14:32:51 14:36:35 23° 91° (E) 14:40:22 437.325
Gurwin Techsat 1B 01 Aug 14:32:53 14:38:07 63° 70° (ENE) 14:43:25 435.225
ESTCUBE 1 01 Aug 14:36:05 14:39:15 19° 301° (WNW) 14:42:18 437.505/2401.250
TISAT 1 01 Aug 14:41:13 14:45:24 64° 288° (WNW) 14:49:34 437.305
HORYU 2 01 Aug 14:48:30 14:50:49 14° 56° (NE) 14:53:17 437.375
ITAMSAT 1 01 Aug 14:52:46 14:57:59 82° 74° (ENE) 15:03:15 435.822/435.867
Cosmos 2504 01 Aug 15:02:29 15:10:50 78° 263° (W) 15:19:26 435.465 / 435.565
AIST 1 01 Aug 15:03:25 15:04:32 11° 303° (WNW) 15:05:28
AO-7 01 Aug 15:08:10 15:15:56 45° 56° (NE) 15:23:45 29.400- 29.500
DANDE 01 Aug 15:11:31 15:14:14 21° 70° (ENE) 15:17:37 436.750
Oscar 19 01 Aug 15:11:40 15:15:53 25° 269° (W) 15:20:02 437.125/150
SO-50 01 Aug 15:25:27 15:28:50 18° 10° (N) 15:32:16 436.795
CUSAT 1 01 Aug 15:28:00 15:31:44 51° 75° (ENE) 15:36:40 437.405
BEESAT 01 Aug 15:28:10 15:32:58 68° 103° (ESE) 15:37:43 436.000
PCSat 01 Aug 15:34:46 15:38:04 16° 12° (NNE) 15:41:25 145.827
STARS 01 Aug 15:46:33 15:48:47 14° 87° (E) 15:51:12 437.465
SWISSCUBE 01 Aug 15:48:50 15:53:39 76° 287° (WNW) 15:58:24 437.505
JAS-2 01 Aug 16:00:24 16:06:42 77° 257° (WSW) 16:13:54 435.910
ITUPSAT 1 01 Aug 16:10:08 16:14:51 55° 290° (WNW) 16:19:30 437.325
Cosmos 2491 01 Aug 16:12:53 16:18:51 19° 313° (NW) 16:24:29 435.465 / 435.565
KKS-1 01 Aug 16:13:13 16:17:22 37° 97° (E) 16:21:33 437.445
Gurwin Techsat 1B 01 Aug 16:14:21 16:18:35 23° 270° (W) 16:22:44 435.225
GONETS M04 01 Aug 16:16:18 16:23:23 27° 56° (NE) 16:30:39
TISAT 1 01 Aug 16:19:58 16:20:24 10° 306° (NW) 16:20:40 437.305
HORYU 2 01 Aug 16:22:21 16:26:49 86° 74° (ENE) 16:31:21 437.375
ITAMSAT 1 01 Aug 16:34:45 16:38:13 17° 273° (W) 16:41:31 435.822/435.867
DANDE 01 Aug 16:54:06 16:57:21 34° 261° (W) 17:01:28 436.750
Cosmos 2504 01 Aug 16:56:07 17:01:56 20° 284° (WNW) 17:07:31 435.465 / 435.565
AO-7 01 Aug 17:00:24 17:08:38 57° 258° (WSW) 17:16:52 29.400- 29.500
SO-50 01 Aug 17:06:08 17:10:44 36° 33° (NNE) 17:15:18 436.795
BEESAT 01 Aug 17:06:49 17:10:23 21° 301° (WNW) 17:13:49 436.000
MOZHAYETS 4 01 Aug 17:07:36 17:11:05 21° 90° (E) 17:14:38
Cubesat XI-IV 01 Aug 17:09:31 17:13:02 18° 54° (NE) 17:16:41 437.490
CUSAT 1 01 Aug 17:11:16 17:14:12 19° 266° (W) 17:17:32 437.405
PCSat 01 Aug 17:18:12 17:23:08 34° 37° (NE) 17:28:05 145.827
STARS 01 Aug 17:21:26 17:25:52 80° 288° (WNW) 17:30:18 437.465
SWISSCUBE 01 Aug 17:28:16 17:30:46 14° 306° (NW) 17:33:06 437.505
Cosmos 2499 01 Aug 17:37:03 17:43:33 24° 53° (NE) 17:50:27 435.465 / 435.565
JAS-2 01 Aug 17:49:14 17:53:19 16° 282° (WNW) 17:57:22 435.910
KKS-1 01 Aug 17:50:00 17:53:56 30° 296° (WNW) 17:57:49 437.445
ITUPSAT 1 01 Aug 17:50:40 17:51:48 11° 310° (NW) 17:52:43 437.325
HORYU 2 01 Aug 18:01:57 18:04:10 13° 274° (W) 18:06:13 437.375
CUTE-I 01 Aug 18:03:21 18:08:21 42° 65° (ENE) 18:13:24 437.470
GONETS M04 01 Aug 18:12:47 18:21:33 87° 263° (W) 18:30:19
HO-68 01 Aug 18:15:49 18:18:44 13° 37° (NE) 18:21:54 435.675
MOZHAYETS 4 01 Aug 18:44:07 18:48:41 56° 289° (WNW) 18:53:12
SO-50 01 Aug 18:46:39 18:51:34 58° 234° (SW) 18:56:22 436.795
Cubesat XI-IV 01 Aug 18:47:06 18:52:29 88° 76° (ENE) 18:57:55 437.490
STARS 01 Aug 18:59:30 19:01:39 13° 305° (NW) 19:03:39 437.465
AO-7 01 Aug 18:59:51 19:03:38 13° 282° (WNW) 19:06:51 29.400- 29.500
PCSat 01 Aug 19:01:33 19:06:55 61° 239° (WSW) 19:12:15 145.827
CUBESAT XI-V 01 Aug 19:02:52 19:06:47 27° 92° (E) 19:10:44 437.345
DOVE 4 01 Aug 19:27:59 19:29:46 13° 57° (ENE) 19:31:43 437.250
Cosmos 2499 01 Aug 19:29:37 19:38:20 78° 78° (ENE) 19:47:16 435.465 / 435.565
BRITE-PL 01 Aug 19:32:24 19:36:12 32° 67° (ENE) 19:39:56 437.365/2234.400
GOMX 1 01 Aug 19:40:38 19:43:58 24° 64° (ENE) 19:47:22 467.674
SEEDS 01 Aug 19:40:47 19:42:25 12° 56° (NE) 19:44:13 437.485
CUTE-I 01 Aug 19:43:37 19:48:32 35° 265° (W) 19:53:27 437.470
CUTE 1.7 + AOD 2 01 Aug 19:43:42 19:46:09 15° 58° (ENE) 19:48:45 437.475
STRAND 1 01 Aug 19:46:37 19:50:42 24° 91° (E) 19:54:52 437.568
CANX-2 01 Aug 19:51:31 19:54:31 19° 61° (ENE) 19:57:39 2200.000
PRISM 01 Aug 19:53:37 19:56:38 20° 91° (E) 19:59:41 437.425
HO-68 01 Aug 19:58:12 20:04:46 42° 59° (ENE) 20:11:26 435.675
VERMONT LUNAR 01 Aug 19:59:34 20:00:13 10° 167° (SSE) 20:00:55 437.305
AAUSAT CUBESAT 2 01 Aug 20:05:00 20:07:10 14° 58° (ENE) 20:09:29 437.432
GONETS M04 01 Aug 20:10:52 20:17:20 23° 283° (WNW) 20:23:30
MOZHAYETS 4 01 Aug 20:24:23 20:25:00 10° 308° (NW) 20:25:25
Cubesat XI-IV 01 Aug 20:30:00 20:33:25 16° 274° (W) 20:36:39 437.490
CUBESAT XI-V 01 Aug 20:40:01 20:44:25 42° 292° (WNW) 20:48:44 437.345
PCSat 01 Aug 20:47:52 20:49:23 11° 257° (WSW) 20:50:35 145.827
ZACube-1 01 Aug 20:53:24 20:55:32 14° 57° (ENE) 20:57:50 437.345
COMPASS 1 01 Aug 20:57:21 21:01:23 45° 69° (ENE) 21:05:28 437.405
DOVE 4 01 Aug 21:02:48 21:06:57 90° 80° (E) 21:11:10 437.250
CINEMA 3 01 Aug 21:07:18 21:11:18 48° 70° (ENE) 21:15:27 145.822/145.860
BRITE-PL 01 Aug 21:10:57 21:14:48 30° 265° (W) 21:18:30 437.365/2234.400
RS-15 01 Aug 21:11:35 21:20:06 29° 105° (ESE) 21:29:12 29.354- 29.394
SEEDS 01 Aug 21:13:16 21:17:32 79° 75° (ENE) 21:21:50 437.485
FUNcube-1 01 Aug 21:13:41 21:16:44 20° 61° (ENE) 21:19:55 145.935
UWE-3 01 Aug 21:17:08 21:20:39 26° 64° (ENE) 21:24:19 435.000/436.395/437.385
CUTE 1.7 + AOD 2 01 Aug 21:17:15 21:21:32 80° 257° (WSW) 21:25:52 437.475
GOMX 1 01 Aug 21:18:01 21:21:59 40° 262° (W) 21:25:56 467.674
DELFI C3 01 Aug 21:20:16 21:23:30 23° 64° (ENE) 21:26:47 145.870
Cosmos 2499 01 Aug 21:23:33 21:30:50 30° 278° (W) 21:38:03 435.465 / 435.565
Oscar 11 01 Aug 21:24:16 21:28:14 36° 67° (ENE) 21:32:17 145.826/435.025
STRAND 1 01 Aug 21:25:17 21:30:18 57° 291° (WNW) 21:35:17 437.568
CANX-2 01 Aug 21:25:50 21:30:04 60° 259° (W) 21:34:22 2200.000
PRISM 01 Aug 21:28:21 21:32:22 49° 290° (WNW) 21:36:20 437.425
UKube-1 01 Aug 21:29:17 21:30:10 11° 53° (NE) 21:31:12 .
CUBEBUG 2 01 Aug 21:33:33 21:37:32 44° 69° (ENE) 21:41:42 437.445
HUMSAT D 01 Aug 21:34:11 21:36:31 15° 58° (ENE) 21:39:01 437.325/437.525
VERMONT LUNAR 01 Aug 21:34:36 21:36:09 13° 184° (S) 21:37:41 437.305
AAUSAT CUBESAT 2 01 Aug 21:37:59 21:42:12 86° 256° (WSW) 21:46:28 437.432
ISS 01 Aug 21:42:48 21:44:47 15° 141° (SE) 21:46:50 145.825
HO-68 01 Aug 21:45:31 21:52:27 52° 260° (W) 21:59:25 435.675
DX 1 01 Aug 21:56:02 21:59:03 19° 60° (ENE) 22:02:10 434.975-435.025
PHONESAT 2.4 01 Aug 22:00:09 22:01:50 13° 168° (SSE) 22:03:32 2401.200-2431.200
VELOX 1 01 Aug 22:13:20 22:16:12 18° 59° (ENE) 22:19:11 145.980
Cosmos 2491 01 Aug 22:18:32 22:25:20 25° 54° (NE) 22:32:19 435.465 / 435.565
M-CUBED/EXP-1 PRIME 01 Aug 22:20:15 22:23:27 18° 93° (E) 22:26:47 437.505
ZACube-1 01 Aug 22:27:02 22:31:16 90° 268° (W) 22:35:38 437.345
ESTCUBE 1 01 Aug 22:27:47 22:30:48 18° 59° (ENE) 22:33:55 437.505/2401.250
COMPASS 1 01 Aug 22:33:53 22:37:16 22° 269° (W) 22:40:37 437.405
TIGRISAT 01 Aug 22:41:39 22:42:31 11° 82° (E) 22:43:38 435.000
ANTELSAT 01 Aug 22:43:14 22:44:43 12° 83° (E) 22:46:27 437.575/2403.000
50 SAT 01 Aug 22:43:18 22:46:44 30° 66° (ENE) 22:50:15 437.505
DOVE 4 01 Aug 22:44:30 22:45:32 11° 276° (W) 22:46:20 437.250
CINEMA 3 01 Aug 22:45:39 22:48:50 20° 270° (W) 22:52:00 145.822/145.860
AUBIESAT-1 01 Aug 22:48:23 22:52:25 27° 98° (E) 22:56:25 437.475
FUNcube-1 01 Aug 22:48:31 22:52:41 57° 260° (W) 22:56:58 145.935
SEEDS 01 Aug 22:51:44 22:53:57 13° 274° (W) 22:55:59 437.485
UWE-3 01 Aug 22:53:02 22:57:02 40° 263° (W) 23:01:08 435.000/436.395/437.385
DELFI C3 01 Aug 22:54:28 22:58:22 42° 262° (W) 23:02:17 145.870
YUBILEINY 01 Aug 22:54:36 22:55:34 10° 66° (ENE) 22:57:10 435.215
CUTE 1.7 + AOD 2 01 Aug 22:57:40 22:58:17 10° 277° (W) 22:58:40 437.475
Oscar 11 01 Aug 23:00:41 23:04:30 29° 266° (W) 23:08:18 145.826/435.025
UKube-1 01 Aug 23:01:14 23:05:31 64° 72° (ENE) 23:09:49 .
STRAND 1 01 Aug 23:06:39 23:08:33 12° 310° (NW) 23:10:15 437.568
HUMSAT D 01 Aug 23:07:33 23:11:43 79° 257° (WSW) 23:15:59 437.325/437.525
AISAT 01 Aug 23:09:13 23:13:29 53° 70° (ENE) 23:17:48 437.250
CUBEBUG 2 01 Aug 23:11:04 23:14:29 23° 269° (W) 23:17:55 437.445
AAUSAT CUBESAT 2 01 Aug 23:17:28 23:18:34 11° 276° (W) 23:19:27 437.432
ISS 01 Aug 23:17:32 23:20:45 59° 159° (SSE) 23:23:59 145.825
RS-15 01 Aug 23:20:05 23:31:05 86° 128° (SE) 23:42:35 29.354- 29.394
CUBEBUG 1 01 Aug 23:21:08 23:25:12 40° 68° (ENE) 23:29:17 437.445
AIST 1 01 Aug 23:23:33 23:27:41 45° 74° (ENE) 23:31:47
DX 1 01 Aug 23:30:36 23:34:55 63° 258° (WSW) 23:39:15 434.975-435.025
UNISAT 6 01 Aug 23:32:45 23:36:55 32° 94° (E) 23:41:10 437.425
PHONESAT 2.4 01 Aug 23:36:55 23:38:59 15° 185° (S) 23:41:03 2401.200-2431.200
POPSAT HIP 1 01 Aug 23:37:02 23:39:13 14° 87° (E) 23:41:33 437.405
QB50P2 01 Aug 23:44:29 23:47:14 17° 89° (E) 23:50:07 145.880/145.840
VELOX 1 01 Aug 23:47:54 23:52:18 71° 257° (WSW) 23:56:43 145.980
BEESAT 3 01 Aug 23:51:35 23:54:40 21° 116° (ESE) 23:57:50 437.485
M-CUBED/EXP-1 PRIME 01 Aug 23:53:56 23:58:46 76° 293° (WNW) 00:03:31 437.505
SPROUT 01 Aug 23:54:23 23:58:04 29° 65° (ENE) 00:01:48 437.525
ESTCUBE 1 02 Aug 00:02:40 00:07:12 73° 257° (WSW) 00:11:45 437.505/2401.250
TISAT 1 02 Aug 00:03:18 00:06:38 24° 63° (ENE) 00:10:01 437.305
ZACube-1 02 Aug 00:06:54 00:08:25 11° 276° (W) 00:09:45 437.345
DUCHIFAT 1 02 Aug 00:07:33 00:11:06 26° 93° (E) 00:14:42 145.980
QB50P1 02 Aug 00:11:22 00:15:06 29° 94° (E) 00:18:51 145.935-145.965
NANOSAT C BR1 02 Aug 00:12:15 00:15:58 29° 94° (E) 00:19:44 145.865
Cosmos 2491 02 Aug 00:14:57 00:23:44 86° 80° (E) 00:32:28 435.465 / 435.565
TIGRISAT 02 Aug 00:15:29 00:20:10 73° 103° (ESE) 00:24:54 435.000
ANTELSAT 02 Aug 00:17:38 00:22:21 79° 102° (ESE) 00:27:06 437.575/2403.000
50 SAT 02 Aug 00:17:51 00:21:18 29° 265° (W) 00:24:46 437.505
AUBIESAT-1 02 Aug 00:22:42 00:27:19 49° 297° (WNW) 00:31:50 437.475
UKube-1 02 Aug 00:39:15 00:42:07 17° 271° (W) 00:44:52 .
YUBILEINY 02 Aug 00:42:06 00:50:16 48° 88° (E) 00:58:34 435.215
AISAT 02 Aug 00:47:02 00:50:24 21° 269° (W) 00:53:41 437.250
BEESAT 2 02 Aug 00:49:36 00:53:37 54° 125° (SE) 00:57:40 435.950
AIST 2 02 Aug 00:51:46 00:54:33 18° 114° (ESE) 00:57:28 435.215
ISS 02 Aug 00:53:55 00:57:10 76° 357° (N) 01:00:27 145.825
POLYITAN 1 02 Aug 00:54:38 00:58:56 77° 103° (ESE) 01:03:14 437.675
CUBEBUG 1 02 Aug 00:58:01 01:01:42 26° 267° (W) 01:05:22 437.445
AIST 1 02 Aug 01:01:49 01:05:04 21° 273° (W) 01:08:12
BEESAT 02 Aug 01:03:13 01:06:52 23° 60° (ENE) 01:10:37 436.000
